Flag for Germany Weather past 2 weeks in Rheda-Wiedenbrück, North Rhine-Westphalia, Germany

Now
57 °F

Passing clouds.


Feels Like: 56 °F
Forecast: 47 / 67 °F
Wind: 7 mph from West

Location: Paderborn / Lippstadt

Current Time: Jul 30, 2015 at 8:48:11 PM

Latest Report: Jul 30, 2015 at 8:20 PM


Visibility: N/A

Pressure: 30.01 "Hg

Humidity: 59%

Dew point: 43 °F

Location of Rheda-WiedenbrückLocation

Historic Weather in Rheda-Wiedenbrück — Graph

°F

Rheda-Wiedenbrück temperature yesterday

Maximum temperature yesterday: 59 °F (at 12:20 PM)
Minimum temperature yesterday: 48 °F (at 12:50 PM)
Average temperature yesterday: 54 °F

Past Weeks' High & Low Weather Summary

 TemperatureHumidityPressure
High88 °F (Jul 17, 4:50 PM)100% (Jul 15, 8:50 PM)30.12 "Hg (Jul 15, 8:50 PM)
Low48 °F (Jul 26, 5:20 AM)21% (Jul 17, 4:50 PM)29.53 "Hg (Jul 25, 9:50 AM)
Average63 °F72%29.88 "Hg
* Reported Jul 15 7:20 PM — Jul 30 7:50 PM, Rheda-Wiedenbrück, Weather by CustomWeather, © 2015

Note: Actual official high and low records may vary slightly from our data, if they occured in-between our weather recording intervals... More about our weather records

Advertising

Rheda-Wiedenbrück weather history for previous 24 hours

 ConditionsComfort  
Time TempWeatherWind HumidityBarometerVisibility
7:50 PM
Thu, Jul 30
59 °FPassing clouds.8 mph55%30.01 "HgN/A
7:20 PM57 °FPassing clouds.8 mph59%30.01 "HgN/A
6:50 PM57 °FPassing clouds.7 mph59%30.01 "HgN/A
6:20 PM59 °FPassing clouds.9 mph59%30.01 "HgN/A
5:50 PM61 °FPassing clouds.9 mph52%30.01 "HgN/A
5:20 PM59 °FPassing clouds.12 mph55%29.98 "HgN/A
4:50 PM59 °FPassing clouds.8 mph55%29.98 "HgN/A
4:20 PM57 °FPartly sunny.9 mph63%29.98 "HgN/A
3:50 PM55 °FPartly sunny.7 mph67%29.98 "HgN/A
3:20 PM55 °FPartly sunny.6 mph72%29.98 "HgN/A
2:50 PM54 °FBroken clouds.10 mph77%29.98 "HgN/A
2:20 PM59 °FBroken clouds.12 mph51%29.95 "HgN/A
1:50 PM61 °FScattered clouds.13 mph48%29.95 "HgN/A
1:20 PM61 °FScattered clouds.14 mph48%29.95 "HgN/A
12:50 PM59 °FScattered clouds.13 mph55%29.95 "HgN/A
12:20 PM57 °FScattered clouds.10 mph59%29.95 "HgN/A
11:50 AM59 °FScattered clouds.13 mph59%29.95 "HgN/A
11:20 AM57 °FScattered clouds.10 mph59%29.95 "HgN/A
10:20 AM55 °FScattered clouds.12 mph72%29.95 "HgN/A
9:50 AM54 °FScattered clouds.12 mph77%29.95 "HgN/A
9:20 AM54 °FScattered clouds.10 mph77%29.95 "HgN/A
8:50 AM54 °FScattered clouds.10 mph77%29.92 "HgN/A
8:20 AM52 °FScattered clouds.9 mph82%29.92 "HgN/A
7:50 AM52 °FPassing clouds.13 mph82%29.92 "HgN/A
7:20 AM52 °FPassing clouds.12 mph82%29.92 "HgN/A
6:50 AM50 °FSunny.10 mph88%29.92 "Hg10 mi
6:20 AM50 °FClear.12 mph88%29.89 "Hg10 mi
5:50 AM50 °FClear.10 mph88%29.89 "Hg10 mi
5:20 AM50 °FClear.12 mph88%29.89 "Hg10 mi
4:50 AM50 °FClear.12 mph88%29.89 "Hg10 mi
4:20 AM50 °FClear.12 mph82%29.89 "Hg10 mi
3:50 AM50 °FClear.12 mph82%29.89 "Hg10 mi
3:20 AM50 °FClear.10 mph82%29.89 "Hg10 mi
2:50 AM50 °FClear.12 mph82%29.89 "Hg10 mi
2:20 AM52 °FClear.10 mph77%29.89 "Hg10 mi
1:50 AM52 °FPassing clouds.13 mph77%29.89 "HgN/A
1:20 AM52 °FClear.14 mph77%29.89 "Hg10 mi
12:50 AM52 °FClear.13 mph77%29.86 "Hg10 mi
12:20 AM52 °FClear.15 mph77%29.86 "Hg10 mi
11:50 PM
Wed, Jul 29
52 °FPassing clouds.14 mph77%29.86 "HgN/A
11:20 PM52 °FClear.14 mph77%29.86 "Hg10 mi
10:50 PM52 °FClear.14 mph77%29.86 "Hg10 mi
10:20 PM54 °FPassing clouds.15 mph72%29.86 "HgN/A
9:50 PM54 °FSunny.13 mph77%29.83 "Hg10 mi
9:20 PM54 °FSunny.10 mph82%29.83 "Hg10 mi
8:50 PM54 °FSunny.12 mph77%29.83 "Hg10 mi
8:20 PM54 °FPassing clouds.14 mph77%29.80 "HgN/A
Weather by CustomWeather, © 2015

See weather overviewHow to use our weather pages